CW9443 Weather Reports


Display with metric or nautical units.
time (UTC)temp
F
wind
direction
speed
MPH
gust
MPH
rain 1hr
in
rain 24hr
in
rain mn
in
humidity
%
barometer
mb
20260904160049 70 262 0.0 0.0 0.00 0.00 0.00 72 1011.8
20260904154538 69 261 0.0 0.0 0.00 0.00 0.00 73 1011.9
20260904153036 68 260 0.0 0.0 0.00 0.00 0.00 76 1011.7
20260904151529 67 260 0.0 0.0 0.00 0.00 0.00 80 1011.7
20260904150033 64 260 0.0 0.0 0.00 0.00 0.00 83 1011.7
20260904144522 63 260 0.0 0.0 0.00 0.00 0.00 86 1011.5
20260904143016 61 260 0.0 0.0 0.00 0.00 0.00 89 1011.4
20260904141515 60 260 0.0 0.0 0.00 0.00 0.00 90 1011.2
20260904140009 59 260 0.0 0.0 0.00 0.00 0.00 90 1011.1
20260904134507 59 260 0.0 0.0 0.00 0.00 0.00 90 1010.9
20260904133005 59 260 0.0 0.0 0.00 0.00 0.00 89 1010.8
20260904131503 59 257 0.0 0.0 0.00 0.00 0.00 88 1010.8
20260904130003 59 257 0.0 0.0 0.00 0.00 0.00 87 1010.7
20260904124502 59 258 0.0 0.0 0.00 0.00 0.00 87 1010.6
20260904123100 59 257 0.0 0.0 0.00 0.00 0.00 87 1010.6
20260904121558 59 257 0.0 0.0 0.00 0.00 0.00 87 1010.6
20260904120105 59 258 0.0 0.0 0.00 0.00 0.00 87 1010.6
20260904114557 59 258 0.0 0.0 0.00 0.00 0.00 87 1010.5
20260904113153 59 257 0.0 0.0 0.00 0.00 0.00 87 1010.6
20260904111553 59 258 0.0 0.0 0.00 0.00 0.00 87 1010.4
20260904110050 59 258 0.0 0.0 0.00 0.00 0.00 87 1010.5
20260904104549 59 258 0.0 0.0 0.00 0.00 0.00 86 1010.5
20260904103047 59 257 0.0 0.0 0.00 0.00 0.00 86 1010.4
20260904101546 59 258 0.0 0.0 0.00 0.00 0.00 86 1010.4
20260904100046 60 257 0.0 0.0 0.00 0.00 0.00 87 1010.4
20260904094548 60 258 0.0 0.0 0.00 0.00 0.00 88 1010.3
20260904093043 60 257 0.0 0.0 0.00 0.00 0.00 88 1010.3
20260904091551 60 258 0.0 0.0 0.00 0.00 0.00 88 1010.4
20260904090045 61 258 0.0 0.0 0.00 0.00 0.00 88 1010.3
20260904084543 61 258 0.0 0.0 0.00 0.00 0.00 88 1010.4
20260904083041 61 258 0.0 0.0 0.00 0.00 0.00 87 1010.5
20260904081540 61 258 0.0 0.0 0.00 0.00 0.00 87 1010.6
20260904080042 61 258 0.0 0.0 0.00 0.00 0.00 88 1010.7
20260904074557 61 257 0.0 0.0 0.00 0.00 0.00 89 1010.7
20260904073038 61 258 0.0 0.0 0.00 0.00 0.00 89 1010.7
20260904071558 61 258 0.0 0.0 0.00 0.00 0.00 89 1010.7
20260904070039 62 257 0.0 0.0 0.00 0.00 0.00 89 1010.6
20260904064541 62 258 0.0 0.0 0.00 0.00 0.00 89 1010.6
20260904063047 62 258 0.0 0.0 0.00 0.00 0.00 88 1010.5
20260904061535 62 258 0.0 0.0 0.00 0.00 0.00 88 1010.5
20260904060034 62 257 0.0 0.0 0.00 0.00 0.00 86 1010.5
20260904054537 62 258 0.0 0.0 0.00 0.00 0.00 85 1010.5
20260904053030 63 258 0.0 0.0 0.00 0.00 0.00 85 1010.6
20260904051531 63 257 0.0 0.0 0.00 0.00 0.00 84 1010.6
20260904050033 63 257 0.0 0.0 0.00 0.00 0.00 84 1010.7
20260904044529 64 257 0.0 0.0 0.00 0.00 0.00 82 1010.7
20260904043027 64 257 0.0 0.0 0.00 0.00 0.00 80 1010.6
20260904041527 64 258 0.0 0.0 0.00 0.00 0.00 80 1010.6
20260904040028 65 258 0.0 0.0 0.00 0.00 0.00 79 1010.5
20260904034530 65 258 0.0 0.0 0.00 0.00 0.00 78 1010.5
20260904033026 66 258 0.0 0.0 0.00 0.00 0.00 76 1010.3
20260904031523 66 258 0.0 0.0 0.00 0.00 0.00 74 1010.2
20260904030034 67 257 0.0 0.0 0.00 0.00 0.00 73 1010.1
20260904024524 67 257 0.0 0.0 0.00 0.00 0.00 71 1010.1
20260904023022 68 258 0.0 0.0 0.00 0.00 0.00 70 1010.0
20260904021533 69 258 0.0 0.0 0.00 0.00 0.00 69 1009.9
20260904020024 69 258 0.0 0.0 0.00 0.00 0.00 67 1009.9
20260904014523 70 257 0.0 0.0 0.00 0.00 0.00 66 1009.8
20260904013017 72 257 0.0 0.0 0.00 0.00 0.00 64 1009.9
20260904011516 73 257 0.0 0.0 0.00 0.00 0.00 61 1010.0
20260904010020 74 249 0.0 0.0 0.00 0.00 0.00 60 1010.0
20260904004518 74 244 0.0 0.0 0.00 0.00 0.00 61 1010.0
20260904003011 75 261 0.0 0.0 0.00 0.00 0.00 60 1010.0
20260904001510 75 247 0.0 0.0 0.00 0.00 0.00 60 1010.2
20260904000010 75 240 0.0 0.0 0.00 0.00 0.00 60 1010.2
20260903234512 75 242 0.0 0.0 0.00 0.00 0.00 63 1010.2
20260903233006 75 244 0.0 0.0 0.00 0.00 0.00 63 1010.3
20260903231506 75 225 1.0 0.0 0.00 0.00 0.00 63 1010.3
20260903230010 76 222 2.0 0.0 0.00 0.00 0.00 62 1010.4
20260903224504 77 215 0.0 0.0 0.00 0.00 0.00 61 1010.5
20260903223105 77 222 2.0 0.0 0.00 0.00 0.00 61 1010.6
20260903221559 78 211 1.0 0.0 0.00 0.00 0.00 60 1010.6
20260903220059 78 223 1.0 0.0 0.00 0.00 0.00 60 1010.6
20260903220002 78 225 0.0 0.0 0.00 0.00 0.00 60 1010.6
20260903214604 78 257 2.0 0.0 0.00 0.00 0.00 61 1010.9
20260903213055 79 221 2.0 0.0 0.00 0.00 0.00 60 1010.9
20260903211553 78 241 1.0 0.0 0.00 0.00 0.00 60 1011.0
20260903210053 79 236 1.0 0.0 0.00 0.00 0.00 60 1011.0
20260903204555 78 208 2.0 0.0 0.00 0.00 0.00 62 1011.0
20260903203053 78 219 2.0 0.0 0.00 0.00 0.00 61 1011.1
20260903201546 79 240 1.0 0.0 0.00 0.00 0.00 60 1011.1
20260903200049 79 244 1.0 0.0 0.00 0.00 0.00 59 1011.2
20260903194545 78 234 1.0 0.0 0.00 0.00 0.00 60 1011.4
20260903193041 78 215 1.0 0.0 0.00 0.00 0.00 60 1011.7
20260903191541 78 224 1.0 0.0 0.00 0.00 0.00 59 1011.7
20260903190038 79 201 0.0 0.0 0.00 0.00 0.00 57 1011.8
20260903184536 79 243 0.0 0.0 0.00 0.00 0.00 56 1012.0
20260903183035 78 241 1.0 0.0 0.00 0.00 0.00 57 1012.1
20260903181534 77 236 0.0 0.0 0.00 0.00 0.00 58 1012.2
20260903180051 77 237 0.0 0.0 0.00 0.00 0.00 53 1012.3
20260903174533 78 238 0.0 0.0 0.00 0.00 0.00 54 1012.3
20260903173030 77 238 0.0 0.0 0.00 0.00 0.00 56 1012.3
20260903171525 75 238 0.0 0.0 0.00 0.00 0.00 60 1012.5
20260903170025 75 237 0.0 0.0 0.00 0.00 0.00 63 1012.5
20260903164520 73 237 0.0 0.0 0.00 0.00 0.00 63 1012.5
20260903163032 73 237 0.0 0.0 0.00 0.00 0.00 65 1012.4
20260903161515 72 237 0.0 0.0 0.00 0.00 0.00 67 1012.5